Weather History for Defiance, OH

Change the Weather History Date:

Thursday, November 22, 2012

  Actual Average Record
Temperature  
Mean Temperature 47 °F -  
Max Temperature 62 °F 43 °F 64 °F (1990)
Min Temperature 32 °F 29 °F 8 °F (1964)
Degree Days  
Heating Degree Days 18    
Moisture  
Dew Point 39 °F    
Average Humidity 79    
Maximum Humidity 100    
Minimum Humidity 46    
Precipitation  
Precipitation 0.01 in - - ()
Sea Level Pressure  
Sea Level Pressure 30.10 in    
Wind  
Wind Speed 5 mph (SSW)    
Max Wind Speed 21 mph    
Max Gust Speed 28 mph    
Visibility 4 miles    
Events Fog , Rain    
Averages and records for this station are not official NWS values.
T = Trace of Precipitation, MM = Missing Value Source: NWS Daily Summary

Daily Weather History Graph

Daily Weather History Graph

Search for Another Location

Airport:

Trip Planner

Search our weather history database for the weather conditions in past years. The results will help you decide how hot, cold, wet, or windy it might be!

Date:

Astronomy

Nov. 22, 2012 Rise Set
Actual Time 7:34 AM EST 5:12 PM EST
Civil Twilight 7:04 AM EST 5:43 PM EST
Nautical Twilight 6:30 AM EST 6:16 PM EST
Astronomical Twilight 5:57 AM EST 6:49 PM EST
Moon 2:01 PM EST (11/22) 1:50 AM EST (11/22)
Length of Visible Light 10h 38m
Length of Day
9h 38m
Waxing Gibbous, 71% of the Moon is Illuminated
Nov 22
Waxing Gibbous
Nov 28
Full
Dec 6
Last Quarter
Dec 13
New
Dec 20
First Quarter

Hourly Weather History & Observations

Time (EST) Temp. Windchill Dew Point Humidity Pressure Visibility Wind Dir Wind Speed Gust Speed Precip Events Conditions
12:53 AM 36.0 °F - 34.0 °F 93% 30.20 in 0.2 mi Calm Calm - N/A Fog Fog
1:47 AM 32.0 °F 28.7 °F 32.0 °F 100% 30.18 in 0.2 mi South 3.5 mph - N/A Fog Fog
1:53 AM 34.0 °F - 33.1 °F 96% 30.19 in 0.2 mi Calm Calm - N/A Fog Fog
2:53 AM 34.0 °F - 33.1 °F 96% 30.19 in 0.2 mi Calm Calm - N/A Fog Fog
3:48 AM 33.8 °F 30.8 °F 33.8 °F 100% 30.17 in 0.2 mi South 3.5 mph - N/A Fog Fog
3:53 AM 36.0 °F 33.3 °F 34.0 °F 93% 30.17 in 0.2 mi South 3.5 mph - N/A Fog Fog
4:00 AM 35.6 °F 32.8 °F 35.6 °F 100% 30.16 in 0.2 mi South 3.5 mph - N/A Fog Fog
4:09 AM 37.4 °F 34.9 °F 35.6 °F 93% 30.16 in 0.2 mi South 3.5 mph - N/A Fog Fog
4:53 AM 37.0 °F - 36.0 °F 96% 30.17 in 0.2 mi Calm Calm - N/A Fog Fog
5:09 AM 37.4 °F - 35.6 °F 93% 30.16 in 0.2 mi Calm Calm - N/A Fog Fog
5:53 AM 37.0 °F 34.5 °F 36.0 °F 96% 30.17 in 0.2 mi South 3.5 mph - N/A Fog Fog
6:20 AM 37.4 °F 34.9 °F 35.6 °F 93% 30.16 in 1.0 mi South 3.5 mph - N/A   Mist
6:32 AM 37.4 °F 33.8 °F 35.6 °F 93% 30.16 in 1.5 mi South 4.6 mph - N/A   Clear
6:53 AM 37.0 °F 33.3 °F 36.0 °F 96% 30.17 in 1.2 mi South 4.6 mph - N/A   Clear
7:53 AM 37.0 °F 33.3 °F 37.0 °F 100% 30.17 in 1.0 mi South 4.6 mph - N/A   Clear
8:53 AM 43.0 °F 39.5 °F 39.9 °F 89% 30.17 in 2.0 mi South 5.8 mph - N/A   Clear
9:13 AM 44.6 °F 42.2 °F 42.8 °F 93% 30.15 in 2.5 mi South 4.6 mph - N/A   Clear
9:34 AM 46.4 °F 43.5 °F 42.8 °F 87% 30.15 in 3.0 mi South 5.8 mph - N/A   Haze
9:53 AM 48.9 °F - 43.0 °F 80% 30.16 in 3.0 mi South 8.1 mph - N/A   Haze
10:53 AM 55.0 °F - 44.1 °F 67% 30.14 in 6.0 mi SSW 11.5 mph - N/A   Haze
11:53 AM 57.9 °F - 44.1 °F 60% 30.10 in 5.0 mi SSW 20.7 mph 27.6 mph N/A   Haze
12:53 PM 61.0 °F - 43.0 °F 52% 30.08 in 7.0 mi SSW 18.4 mph 27.6 mph N/A   Clear
1:53 PM 62.1 °F - 41.0 °F 46% 30.05 in 10.0 mi SW 12.7 mph 25.3 mph N/A   Clear
2:53 PM 62.1 °F - 42.1 °F 48% 30.02 in 10.0 mi SSW 13.8 mph 20.7 mph N/A   Clear
3:53 PM 61.0 °F - 41.0 °F 48% 30.01 in 10.0 mi South 10.4 mph - N/A   Clear
4:53 PM 57.9 °F - 41.0 °F 53% 30.00 in 10.0 mi South 10.4 mph - N/A   Clear
5:53 PM 55.9 °F - 39.9 °F 55% 29.99 in 10.0 mi SSW 10.4 mph - N/A   Clear
6:53 PM 55.9 °F - 41.0 °F 57% 29.98 in 10.0 mi South 13.8 mph - N/A   Mostly Cloudy
7:53 PM 54.0 °F - 43.0 °F 66% 29.97 in 8.0 mi SSW 12.7 mph - 0.00 in Rain Light Rain
8:53 PM 54.0 °F - 43.0 °F 66% 29.94 in 10.0 mi South 12.7 mph - 0.01 in   Overcast
9:53 PM 54.0 °F - 42.1 °F 64% 29.92 in 10.0 mi SSW 11.5 mph - N/A   Scattered Clouds
10:53 PM 54.0 °F - 42.1 °F 64% 29.90 in 10.0 mi SSW 12.7 mph - N/A   Overcast
11:53 PM 54.0 °F - 41.0 °F 62% 29.87 in 10.0 mi SSW 10.4 mph - N/A   Partly Cloudy